Showing default

IRIDIUM 150, 43257

Orbit data source: Space-Track

IRIDIUM 150, 43257 is a payload satellite owned by Iridium (US) in LEO that was launched on Fri, 30 Mar 2018 UTC via an FALCON 9 launch vehicle from the Air Force Western Test Range (AFWTR). Payload-class satellites include a variety of spacecraft equipped with specific instruments for various scientific and technological missions. These include communications satellites like Starlink; space stations such as the ISS; scientific satellites like the Hubble; Earth observation satellites from companies like Planet Labs, Umbra, and HawkEye 360; GPS; miniature CubeSats for education and research; and military/defense satellites.

Loading next visibility...
Identifier
43257, 2018-030J
Orbit
LEO
Country
Flag of USUS
Related business
Manufacturer
OATK SSG Gilbert
Mission
Operational Commercial Communications
Bus & Motor
ELITEBUS, Unknown motor
Mass
860 kg wet, 700 kg dry
Launch date (UTC)
2018-03-30 (7 years ago)
Launch vehicle
FALCON 9
Launch site
Air Force Western Test Range (AFWTR)
Object type
Payload
Rocket body
Debris
Shape & HBR
Trap Box + 2 Pan, 4.7 m
Radar Cross Section
14.423 m², Large (>1 m²)

Expand to show TLE details & history
Last TLE update: 10 hours ago

TLE from 10 hours ago
0 IRIDIUM 150
1 43257U 18030J   25258.46948417  .00000129  00000-0  39090-4 0  9995
2 43257  86.3955  45.2892 0002370  89.0302 271.1166 14.34218250390784
Epoch: 2025-09-15T11:16Z
TLE epoch observation values (Epoch: 2025-09-15T11:16:03.432Z)
Latitude
0.00006°
Longitude
-118.39878°
Altitude
780.684 km
Speed
7.464 km/s
True Right ascension
03h 01m 09s
True Declination
0° 00' 00"
Sunlit
Object was in full shadow at epoch
Visualization orbit readout
Latitude
Unknown
Longitude
Unknown
Altitude
Unknown
Speed
Unknown
Apparent Right ascension
Unknown
Apparent Declination
Unknown
Sunlit
N/A
Visualization observer readout
Local Sidereal Time
13:26:47
Azimuth
Unknown
Elevation
Unknown
Doppler factor
Unknown
Orbital elements
Apogee altitude
776.325 km
Perigee altitude
772.935 km
Semi-major axis
7,152.767 km
Eccentricity
0.00024
Inclination
86.3955°
RAAN
45.2892°
Arg. of periapsis
89.0302°
True anomaly
271.08945°
Mean anomaly
271.1166°
Eccentric anomaly
271.10302°
Mean motion
3.58783 °/min
Orbital period
100.34 mins
BSTAR
0.00003909
Loading maneuver chart data...
Computing Atmospheric mass density...
Loading historical data...
Loading historical data...
Loading historical data...
Loading historical data...
Loading historical data...
Loading historical data...
Loading historical data...

Documentation

Showing up to 5 results
|